Hourly Data Report for October 30, 2014

All times are specified in Local Standard Time (LST). Add 1 hour to adjust for Daylight Saving Time where and when it is observed.

IQALUIT CLIMATE
NUNAVUT

63°44'50.000" N
68°32'40.000" W
33.50 m
2402592
71321
XFB

Download Data

Hourly Data (October 2014)
Hourly Data Report for October 30, 2014
Temp Definition
°C
Dew Point Temp Definition
°C
Rel Hum Definition
%
Wind Dir Definition
10's deg

Wind Spd Definition
km/h
Visibility Definition
km
Stn Press Definition
kPa
Hmdx Definition


Wind Chill Definition


Weather Definition


TIME
00:00 -1.7 -2.1 97 33 2   100.17   -2 LegendNANA
01:00 -1.3 -1.8 96 6 3   100.13   -2 LegendNANA
02:00 -0.9 -1.6 95 33 3   100.08   -2 LegendNANA
03:00 0.1 -1.2 91 6 11   100.02     LegendNANA
04:00 0.5 -1.9 84 6 17   99.99     LegendNANA
05:00 0.2 -1.5 89 7 20   99.94     LegendNANA
06:00 0.5 -1.6 86 8 26   99.92     LegendNANA
07:00 0.3 -1.7 86 7 24   99.90     LegendNANA
08:00 0.2 -1.9 86 7 23   99.84     LegendNANA
09:00 0.9 -2.2 80 6 23   99.80     LegendNANA
10:00 1.5 -2.1 77 7 21   99.75     LegendNANA
11:00 1.4 -1.1 84 10 22   99.74     LegendNANA
12:00
13:00
14:00
15:00
16:00 1.1 -0.5 89 7 28   99.70     LegendNANA
17:00 1.2 -0.6 87 7 30   99.67     LegendNANA
18:00 2.0 -1.8 76 7 28   99.65     LegendNANA
19:00 2.0 -1.9 75 7 27   99.64     LegendNANA
20:00 2.0 -1.3 79 7 25   99.65     LegendNANA
21:00 1.8 -1.1 81 7 20   99.62     LegendNANA
22:00 1.9 -1.4 79 7 30   99.59     LegendNANA
23:00 2.0 -1.2 79 7 28   99.56     LegendNANA

Notes on Data Quality.

Legend

  • E = Estimated
  • M = Missing
  • NA = Not Available
  • ‡ = Partner data that is not subject to review by the National Climate Archives
Date modified: